Location: Krakow
(50.0212°N, 19.9423°E)
Time: 07:09:18
(UTC+02:00)

ESTCUBE 1 - Visible Passes

Search period start: 16 April 2024 00:00
Search period end: 26 April 2024 00:00
Orbit: 635 x 649 km, 97.8° (Epoch: 15 April)

Date Brightness Start Highest point End Pass type
(mag) Time Alt. Az. Time Alt. Az. Time Alt. Az.
16 Apr ? 21:17:18 24° ESE 21:19:05 34° ENE 21:23:05 10° N visible
16 Apr ? 22:54:55 29° WSW 22:55:41 30° W 22:59:37 10° NNW visible
17 Apr ? 21:41:34 36° SE 21:43:04 56° ENE 21:47:24 10° N visible
17 Apr ? 23:19:11 18° WSW 23:20:00 19° W 23:23:08 10° NW visible
18 Apr ? 20:28:51 10° E 20:31:12 14° ENE 20:33:32 10° NNE visible
18 Apr ? 22:05:50 46° SSE 22:07:08 87° WSW 22:11:35 10° NNW visible
18 Apr ? 23:43:28 11° W 23:44:24 11° W 23:45:42 10° WNW visible
19 Apr ? 20:52:29 14° ESE 20:55:00 22° ENE 20:58:23 10° NNE visible
19 Apr ? 22:30:06 40° SSW 22:31:16 51° W 22:35:36 10° NNW visible
20 Apr ? 21:16:45 22° ESE 21:18:53 34° ENE 21:22:54 10° N visible
20 Apr ? 22:54:22 27° WSW 22:55:29 30° W 22:59:25 10° NNW visible
21 Apr ? 21:41:00 31° SE 21:42:51 56° ENE 21:47:12 10° N visible
21 Apr ? 23:18:37 17° WSW 23:19:46 19° W 23:22:54 10° NW visible
22 Apr ? 20:28:37 10° E 20:30:57 14° ENE 20:33:17 10° NNE visible
22 Apr ? 22:05:15 39° SSE 22:06:53 87° WSW 22:11:20 10° NNW visible
22 Apr ? 23:42:52 10° WSW 23:44:08 11° W 23:45:27 10° WNW visible
23 Apr ? 20:51:52 12° ESE 20:54:44 22° ENE 20:58:07 10° NNE visible
23 Apr ? 22:29:29 35° SSW 22:30:59 51° W 22:35:20 10° NNW visible
24 Apr ? 21:16:06 19° ESE 21:18:35 34° ENE 21:22:35 10° N visible
24 Apr ? 22:53:43 25° SW 22:55:10 30° W 22:59:07 10° NNW visible
25 Apr ? 21:40:19 27° SE 21:42:32 56° ENE 21:46:52 10° N visible
25 Apr ? 23:17:56 16° WSW 23:19:26 19° W 23:22:35 10° NW visible
